Powrót do katalogu

YAOGAN-30 X

AktywnyMilitariaVLEO
NORAD 48423·PAYLOAD·🇨🇳 China

Wystrzelony May 6, 2021 z Xichang Satellite Launch Center

Loading…

Następne Przeloty (najbliższe 24 godziny)

TLE

ŚwieżeSource: Space-Track

Epoka: Sep 14, 2026, 13:57 UTC

1 48423U 21039A   26257.58130141  .00002100  00000-0  15493-3 0  9999
2 48423  34.9966 206.6430 0003143 107.0900 253.0153 15.03035285293004

Śledź YAOGAN-30 X w czasie rzeczywistym z AllMySat

Download on the App Store